Location: Eexterzandvoort
(53.0303°N, 6.7884°E)
Time: 06:56:05
(UTC+00:00)

ISS - Pass Details

Date: 19 May 2025
Orbit: 415 x 417 km, 51.6° (Epoch: 14 June)

Event Time Altitude Azimuth Distance (km) Brightness Sun altitude
Rises 21:49:14 0° 280° (W) 2,362 0.6 -13.8°
Reaches altitude 10° 21:51:31 10° 268° (W) 1,495 -0.7 -14.0°
Maximum altitude 21:54:23 26° 209° (SSW) 850 -2.6 -14.1°
Enters shadow 21:54:58 25° 190° (S) 885 -2.6 -14.2°
